| time (UTC) | temp F | wind direction | speed knots | gust knots | rain 1hr in | rain 24hr in | rain mn in | humidity % | barometer mb |
| 20260508082518 | 58 | 72 | 0.0 | 0.0 | 0.00 | 0.03 | 0.00 | ||
| 20260508082016 | 58 | 72 | 0.0 | 0.0 | 0.00 | 0.03 | 0.00 | ||
| 20260508080516 | 59 | 72 | 0.0 | 0.0 | 0.00 | 0.03 | 0.00 | ||
| 20260508080015 | 59 | 72 | 0.0 | 0.0 | 0.00 | 0.03 | 0.00 | ||
| 20260508073538 | 60 | 72 | 0.0 | 0.0 | 0.00 | 0.03 | 0.00 | ||
| 20260508072218 | 60 | 72 | 0.0 | 0.0 | 0.00 | 0.03 | 0.00 | ||
| 20260508072011 | 59 | 72 | 0.0 | 0.0 | 0.00 | 0.03 | 0.00 | ||
| 20260508071512 | 60 | 72 | 0.0 | 0.0 | 0.00 | 0.03 | 0.00 | ||
| 20260508071011 | 60 | 72 | 0.0 | 0.0 | 0.00 | 0.03 | 0.00 | ||
| 20260508070010 | 60 | 72 | 0.0 | 0.0 | 0.00 | 0.03 | 0.00 | ||
| 20260508065959 | 62 | 94 | 2.6 | 1.7 | 0.00 | 0.03 | 0.00 | ||
| 20260508065654 | 62 | 80 | 1.7 | 0.9 | 0.00 | 0.03 | 0.00 | ||
| 20260508065009 | 60 | 72 | 0.0 | 0.0 | 0.00 | 0.03 | 0.00 | ||
| 20260508064510 | 60 | 72 | 0.0 | 0.0 | 0.00 | 0.03 | 0.00 | ||
| 20260508063510 | 60 | 72 | 0.0 | 0.0 | 0.00 | 0.03 | 0.00 | ||
| 20260508063009 | 61 | 72 | 0.0 | 0.0 | 0.00 | 0.03 | 0.00 | ||
| 20260508062007 | 60 | 72 | 0.0 | 0.0 | 0.00 | 0.03 | 0.00 | ||
| 20260508061508 | 60 | 103 | 1.7 | 1.7 | 0.00 | 0.03 | 0.00 | ||
| 20260508060508 | 61 | 63 | 0.0 | 0.0 | 0.00 | 0.03 | 0.00 | ||
| 20260508060006 | 61 | 63 | 0.0 | 0.0 | 0.00 | 0.03 | 0.00 | ||
| 20260508055507 | 61 | 63 | 0.0 | 0.0 | 0.00 | 0.03 | 0.00 | ||
| 20260508055004 | 61 | 77 | 0.9 | 0.9 | 0.00 | 0.03 | 0.00 | ||
| 20260508054505 | 61 | 114 | 1.7 | 0.9 | 0.00 | 0.03 | 0.00 | ||
| 20260508054004 | 61 | 110 | 1.7 | 0.9 | 0.00 | 0.03 | 0.00 | ||
| 20260508053505 | 62 | 84 | 0.0 | 0.0 | 0.00 | 0.03 | 0.00 | ||
| 20260508053017 | 63 | 187 | 0.0 | 0.0 | 0.00 | 0.03 | 0.00 | ||
| 20260508053003 | 62 | 132 | 1.7 | 1.7 | 0.00 | 0.03 | 0.00 | ||
| 20260508052504 | 62 | 94 | 2.6 | 1.7 | 0.00 | 0.03 | 0.00 | ||
| 20260508052002 | 62 | 80 | 1.7 | 0.9 | 0.00 | 0.03 | 0.00 | ||
| 20260508051503 | 62 | 160 | 0.0 | 2.6 | 0.00 | 0.03 | 0.00 | ||
| 20260508051132 | 63 | 70 | 2.6 | 3.5 | 0.00 | 0.03 | 0.00 | ||
| 20260508051002 | 62 | 58 | 0.9 | 2.6 | 0.00 | 0.03 | 0.00 | ||
| 20260508050503 | 63 | 187 | 0.0 | 0.0 | 0.00 | 0.03 | 0.00 | ||
| 20260508050001 | 63 | 125 | 2.6 | 2.6 | 0.00 | 0.03 | 0.00 | ||
| 20260508045502 | 63 | 83 | 3.5 | 3.5 | 0.00 | 0.03 | 0.00 | ||
| 20260508045000 | 63 | 70 | 2.6 | 3.5 | 0.00 | 0.03 | 0.00 | ||
| 20260508044501 | 64 | 105 | 3.5 | 1.7 | 0.00 | 0.03 | 0.00 | ||
| 20260508044000 | 64 | 69 | 3.5 | 3.5 | 0.00 | 0.03 | 0.00 | ||
| 20260508043501 | 65 | 49 | 3.5 | 1.7 | 0.00 | 0.03 | 0.00 | ||
| 20260508042959 | 65 | 132 | 3.5 | 2.6 | 0.00 | 0.03 | 0.00 | ||
| 20260508042500 | 65 | 79 | 2.6 | 2.6 | 0.00 | 0.03 | 0.00 | ||
| 20260508041958 | 66 | 91 | 1.7 | 1.7 | 0.00 | 0.03 | 0.00 | ||
| 20260508041459 | 66 | 69 | 1.7 | 1.7 | 0.00 | 0.03 | 0.00 | ||
| 20260508040657 | 70 | 249 | 0.0 | 0.0 | 0.00 | 0.00 | 0.03 | ||
| 20260508040617 | 69 | 330 | 0.0 | 0.0 | 0.00 | 0.00 | 0.03 | ||
| 20260508040459 | 68 | 13 | 4.3 | 2.6 | 0.00 | 0.00 | 0.03 | ||
| 20260508035507 | 70 | 219 | 0.0 | 0.0 | 0.00 | 0.00 | 0.03 | ||
| 20260508035458 | 70 | 125 | 0.9 | 2.6 | 0.00 | 0.00 | 0.03 | ||
| 20260508034956 | 69 | 291 | 0.0 | 0.0 | 0.00 | 0.00 | 0.03 | ||
| 20260508034537 | 70 | 15 | 0.9 | 2.6 | 0.00 | 0.00 | 0.03 | ||
| 20260508034457 | 69 | 316 | 0.0 | 1.7 | 0.00 | 0.00 | 0.03 | ||
| 20260508033955 | 70 | 212 | 1.7 | 0.9 | 0.00 | 0.00 | 0.03 | ||
| 20260508033456 | 69 | 349 | 0.9 | 1.7 | 0.00 | 0.00 | 0.03 | ||
| 20260508032955 | 69 | 315 | 1.7 | 1.7 | 0.00 | 0.00 | 0.03 | ||
| 20260508032837 | 70 | 298 | 1.7 | 0.0 | 0.00 | 0.00 | 0.03 | ||
| 20260508032456 | 69 | 290 | 0.9 | 0.0 | 0.00 | 0.00 | 0.03 | ||
| 20260508031954 | 69 | 266 | 0.0 | 0.0 | 0.00 | 0.00 | 0.03 | ||
| 20260508031455 | 69 | 249 | 0.0 | 0.0 | 0.00 | 0.00 | 0.03 | ||
| 20260508030953 | 70 | 249 | 0.0 | 0.0 | 0.00 | 0.00 | 0.03 | ||
| 20260508030454 | 69 | 330 | 0.0 | 0.0 | 0.00 | 0.00 | 0.03 | ||
| 20260508025953 | 70 | 219 | 0.0 | 0.0 | 0.00 | 0.00 | 0.03 | ||
| 20260508025454 | 70 | 219 | 0.0 | 0.0 | 0.00 | 0.00 | 0.03 | ||
| 20260508024952 | 69 | 219 | 0.9 | 0.0 | 0.00 | 0.00 | 0.03 | ||
| 20260508024453 | 70 | 15 | 0.9 | 2.6 | 0.00 | 0.00 | 0.03 | ||
| 20260508023951 | 70 | 301 | 1.7 | 1.7 | 0.00 | 0.00 | 0.03 | ||
| 20260508023452 | 70 | 309 | 3.5 | 3.5 | 0.00 | 0.00 | 0.03 | ||
| 20260508022950 | 70 | 298 | 1.7 | 0.0 | 0.00 | 0.00 | 0.03 | ||
| 20260508022451 | 70 | 253 | 0.9 | 1.7 | 0.00 | 0.00 | 0.03 | ||
| 20260508021949 | 70 | 170 | 2.6 | 0.9 | 0.00 | 0.00 | 0.03 | ||
| 20260508021450 | 70 | 354 | 1.7 | 3.5 | 0.00 | 0.00 | 0.03 | ||
| 20260508020948 | 70 | 214 | 0.0 | 0.0 | 0.00 | 0.00 | 0.03 | ||
| 20260508020449 | 70 | 276 | 0.9 | 0.9 | 0.00 | 0.00 | 0.03 | ||
| 20260508020248 | 70 | 352 | 0.9 | 0.9 | 0.00 | 0.00 | 0.03 | ||
| 20260508015950 | 72 | 197 | 0.0 | 1.7 | 0.00 | 0.00 | 0.03 | ||
| 20260508015947 | 70 | 300 | 0.0 | 1.7 | 0.00 | 0.00 | 0.03 | ||
| 20260508015514 | 72 | 350 | 0.0 | 0.9 | 0.00 | 0.00 | 0.03 | ||
| 20260508015448 | 70 | 359 | 1.7 | 1.7 | 0.00 | 0.00 | 0.03 | ||
| 20260508015037 | 72 | 339 | 0.9 | 0.9 | 0.00 | 0.00 | 0.03 | ||
| 20260508014947 | 71 | 259 | 0.0 | 0.0 | 0.00 | 0.00 | 0.03 | ||
| 20260508014726 | 73 | 332 | 0.0 | 0.0 | 0.00 | 0.00 | 0.03 | ||
| 20260508014546 | 73 | 263 | 0.0 | 0.0 | 0.00 | 0.00 | 0.03 | ||
| 20260508014448 | 70 | 352 | 0.9 | 0.9 | 0.00 | 0.00 | 0.03 | ||
| 20260508014436 | 73 | 267 | 1.7 | 2.6 | 0.00 | 0.00 | 0.03 | ||
| 20260508013946 | 70 | 307 | 0.9 | 1.7 | 0.00 | 0.00 | 0.03 | ||
| 20260508013447 | 71 | 198 | 0.0 | 0.0 | 0.00 | 0.00 | 0.03 | ||
| 20260508012945 | 71 | 263 | 2.6 | 2.6 | 0.00 | 0.00 | 0.03 | ||
| 20260508012446 | 71 | 287 | 0.9 | 0.9 | 0.00 | 0.00 | 0.03 | ||
| 20260508011944 | 71 | 302 | 0.0 | 0.9 | 0.00 | 0.00 | 0.03 | ||
| 20260508011445 | 71 | 239 | 0.0 | 0.0 | 0.00 | 0.00 | 0.03 | ||
| 20260508010943 | 71 | 345 | 0.9 | 0.0 | 0.00 | 0.00 | 0.03 | ||
| 20260508010444 | 71 | 335 | 0.9 | 0.9 | 0.00 | 0.00 | 0.03 | ||
| 20260508005943 | 71 | 325 | 0.9 | 0.9 | 0.00 | 0.00 | 0.03 | ||
| 20260508005444 | 72 | 318 | 0.9 | 1.7 | 0.00 | 0.00 | 0.03 | ||
| 20260508004942 | 72 | 8 | 0.9 | 1.7 | 0.00 | 0.00 | 0.03 | ||
| 20260508004443 | 72 | 262 | 0.0 | 0.0 | 0.00 | 0.00 | 0.03 | ||
| 20260508003941 | 72 | 197 | 0.0 | 1.7 | 0.00 | 0.00 | 0.03 | ||
| 20260508003442 | 72 | 350 | 0.0 | 0.9 | 0.00 | 0.00 | 0.03 | ||
| 20260508002940 | 72 | 339 | 0.9 | 0.9 | 0.00 | 0.00 | 0.03 | ||
| 20260508002441 | 73 | 332 | 0.0 | 0.0 | 0.00 | 0.00 | 0.03 | ||
| 20260508001940 | 73 | 263 | 0.0 | 0.0 | 0.00 | 0.00 | 0.03 | ||
| 20260508001440 | 73 | 267 | 1.7 | 2.6 | 0.00 | 0.00 | 0.03 | ||
| 20260508000939 | 73 | 309 | 0.9 | 0.0 | 0.00 | 0.00 | 0.03 | ||
| 20260508000441 | 73 | 328 | 0.9 | 0.0 | 0.00 | 0.00 | 0.03 | ||
| 20260508000436 | 74 | 243 | 1.7 | 0.9 | 0.00 | 0.00 | 0.03 | ||
| 20260507234437 | 74 | 281 | 1.7 | 0.9 | 0.00 | 0.00 | 0.03 | ||
| 20260507233935 | 74 | 269 | 1.7 | 0.0 | 0.00 | 0.00 | 0.03 | ||
| 20260507233436 | 74 | 340 | 0.9 | 1.7 | 0.00 | 0.00 | 0.03 | ||
| 20260507232934 | 74 | 243 | 1.7 | 0.9 | 0.00 | 0.00 | 0.03 | ||
| 20260507232435 | 75 | 323 | 0.0 | 0.0 | 0.00 | 0.00 | 0.03 | ||
| 20260507231933 | 74 | 294 | 2.6 | 4.3 | 0.00 | 0.00 | 0.03 | ||
| 20260507231434 | 75 | 326 | 3.5 | 3.5 | 0.00 | 0.00 | 0.03 | ||
| 20260507230932 | 74 | 328 | 1.7 | 2.6 | 0.00 | 0.00 | 0.03 | ||
| 20260507230433 | 75 | 319 | 2.6 | 2.6 | 0.00 | 0.00 | 0.03 | ||
| 20260507225433 | 74 | 242 | 0.9 | 1.7 | 0.00 | 0.00 | 0.03 | ||
| 20260507224931 | 75 | 278 | 2.6 | 1.7 | 0.00 | 0.00 | 0.03 | ||
| 20260507224432 | 75 | 290 | 3.5 | 2.6 | 0.00 | 0.00 | 0.03 | ||
| 20260507223930 | 74 | 290 | 2.6 | 4.3 | 0.00 | 0.00 | 0.03 | ||
| 20260507222929 | 75 | 325 | 2.6 | 1.7 | 0.00 | 0.00 | 0.03 | ||
| 20260507222430 | 74 | 325 | 2.6 | 1.7 | 0.00 | 0.00 | 0.03 | ||
| 20260507221928 | 75 | 302 | 1.7 | 3.5 | 0.00 | 0.00 | 0.03 | ||
| 20260507220927 | 75 | 314 | 3.5 | 5.2 | 0.00 | 0.00 | 0.03 | ||
| 20260507220428 | 75 | 325 | 4.3 | 2.6 | 0.00 | 0.00 | 0.03 | ||
| 20260507215927 | 75 | 318 | 3.5 | 4.3 | 0.00 | 0.00 | 0.03 | ||
| 20260507215428 | 74 | 325 | 2.6 | 0.9 | 0.00 | 0.00 | 0.03 | ||
| 20260507214926 | 75 | 315 | 3.5 | 3.5 | 0.00 | 0.00 | 0.03 | ||
| 20260507214427 | 75 | 318 | 5.2 | 3.5 | 0.00 | 0.00 | 0.03 | ||
| 20260507213925 | 75 | 336 | 3.5 | 3.5 | 0.00 | 0.00 | 0.03 | ||
| 20260507213427 | 75 | 319 | 3.5 | 2.6 | 0.00 | 0.00 | 0.03 | ||
| 20260507212924 | 75 | 309 | 5.2 | 3.5 | 0.00 | 0.00 | 0.03 | ||
| 20260507212425 | 74 | 285 | 3.5 | 5.2 | 0.00 | 0.00 | 0.03 | ||
| 20260507211924 | 74 | 288 | 5.2 | 4.3 | 0.00 | 0.00 | 0.03 | ||
| 20260507211425 | 75 | 335 | 4.3 | 5.2 | 0.00 | 0.00 | 0.03 | ||
| 20260507210923 | 75 | 163 | 3.5 | 1.7 | 0.00 | 0.00 | 0.03 | ||
| 20260507205922 | 74 | 226 | 5.2 | 7.0 | 0.03 | 0.00 | 0.03 | ||
| 20260507204921 | 74 | 285 | 7.8 | 6.1 | 0.03 | 0.00 | 0.03 | ||
| 20260507204422 | 74 | 329 | 4.3 | 4.3 | 0.03 | 0.00 | 0.03 | ||
| 20260507203421 | 73 | 295 | 3.5 | 4.3 | 0.03 | 0.00 | 0.03 | ||
| 20260507202920 | 73 | 359 | 5.2 | 4.3 | 0.03 | 0.00 | 0.03 | ||
| 20260507202420 | 73 | 349 | 2.6 | 5.2 | 0.03 | 0.00 | 0.03 | ||
| 20260507201919 | 72 | 340 | 2.6 | 7.8 | 0.03 | 0.00 | 0.03 | ||
| 20260507201420 | 72 | 318 | 3.5 | 2.6 | 0.03 | 0.00 | 0.03 | ||
| 20260507200918 | 72 | 232 | 0.0 | 0.0 | 0.03 | 0.00 | 0.03 | ||
| 20260507200419 | 71 | 281 | 0.0 | 0.0 | 0.00 | 0.00 | 0.03 | ||
| 20260507195417 | 72 | 352 | 1.7 | 0.0 | 0.00 | 0.00 | 0.03 | ||
| 20260507194915 | 72 | 347 | 0.0 | 0.0 | 0.00 | 0.00 | 0.03 | ||
| 20260507194416 | 71 | 347 | 0.0 | 0.0 | 0.00 | 0.00 | 0.03 | ||
| 20260507193914 | 72 | 283 | 1.7 | 1.7 | 0.00 | 0.00 | 0.03 | ||
| 20260507193416 | 71 | 322 | 0.9 | 2.6 | 0.00 | 0.00 | 0.02 | ||
| 20260507192914 | 72 | 347 | 3.5 | 0.0 | 0.00 | 0.00 | 0.02 | ||
| 20260507192415 | 73 | 342 | 1.7 | 1.7 | 0.00 | 0.00 | 0.01 | ||
| 20260507191913 | 73 | 312 | 0.9 | 1.7 | 0.00 | 0.00 | 0.01 | ||
| 20260507191414 | 74 | 263 | 1.7 | 0.0 | 0.00 | 0.00 | 0.01 | ||
| 20260507190912 | 74 | 314 | 3.5 | 2.6 | 0.00 | 0.00 | 0.00 | ||
| 20260507190413 | 75 | 283 | 2.6 | 2.6 | 0.00 | 0.00 | 0.00 | ||
| 20260507185911 | 76 | 290 | 3.5 | 3.5 | 0.00 | 0.00 | 0.00 | ||
| 20260507185412 | 76 | 300 | 2.6 | 1.7 | 0.00 | 0.00 | 0.00 | ||
| 20260507184910 | 76 | 318 | 4.3 | 3.5 | 0.00 | 0.00 | 0.00 | ||
| 20260507184412 | 77 | 338 | 3.5 | 5.2 | 0.00 | 0.00 | 0.00 | ||
| 20260507183910 | 77 | 231 | 4.3 | 0.9 | 0.00 | 0.00 | 0.00 | ||
| 20260507183411 | 78 | 266 | 4.3 | 6.1 | 0.00 | 0.00 | 0.00 | ||
| 20260507182909 | 77 | 304 | 2.6 | 4.3 | 0.00 | 0.00 | 0.00 | ||
| 20260507182410 | 77 | 356 | 0.9 | 0.0 | 0.00 | 0.00 | 0.00 | ||
| 20260507181908 | 76 | 295 | 3.5 | 2.6 | 0.00 | 0.00 | 0.00 | ||
| 20260507181410 | 76 | 273 | 0.0 | 0.9 | 0.00 | 0.00 | 0.00 | ||
| 20260507180409 | 75 | 256 | 0.9 | 0.0 | 0.00 | 0.00 | 0.00 | ||
| 20260507175907 | 75 | 262 | 0.0 | 0.0 | 0.00 | 0.00 | 0.00 | ||
| 20260507175408 | 75 | 309 | 1.7 | 1.7 | 0.00 | 0.00 | 0.00 | ||
| 20260507174906 | 75 | 305 | 0.0 | 0.9 | 0.00 | 0.00 | 0.00 | ||
| 20260507174407 | 74 | 323 | 1.7 | 0.9 | 0.00 | 0.00 | 0.00 | ||
| 20260507173906 | 74 | 346 | 1.7 | 1.7 | 0.00 | 0.00 | 0.00 | ||
| 20260507173407 | 74 | 325 | 0.9 | 0.0 | 0.00 | 0.00 | 0.00 | ||
| 20260507172905 | 74 | 280 | 2.6 | 0.0 | 0.00 | 0.00 | 0.00 | ||
| 20260507172406 | 74 | 198 | 1.7 | 0.0 | 0.00 | 0.00 | 0.00 | ||
| 20260507171905 | 74 | 238 | 0.0 | 0.0 | 0.00 | 0.00 | 0.00 | ||
| 20260507171405 | 74 | 256 | 0.9 | 1.7 | 0.00 | 0.00 | 0.00 | ||
| 20260507170904 | 74 | 278 | 2.6 | 1.7 | 0.00 | 0.00 | 0.00 | ||
| 20260507170405 | 74 | 295 | 0.0 | 0.0 | 0.00 | 0.00 | 0.00 | ||
| 20260507165903 | 73 | 208 | 0.0 | 0.0 | 0.00 | 0.00 | 0.00 | ||
| 20260507165404 | 73 | 359 | 1.7 | 0.9 | 0.00 | 0.00 | 0.00 | ||
| 20260507164902 | 73 | 307 | 0.0 | 0.0 | 0.00 | 0.00 | 0.00 | ||
| 20260507164403 | 73 | 305 | 0.9 | 0.0 | 0.00 | 0.00 | 0.00 | ||
| 20260507163901 | 73 | 238 | 0.9 | 1.7 | 0.00 | 0.00 | 0.00 | ||
| 20260507163402 | 73 | 249 | 1.7 | 0.9 | 0.00 | 0.00 | 0.00 | ||
| 20260507162901 | 73 | 149 | 0.0 | 0.0 | 0.00 | 0.00 | 0.00 | ||
| 20260507162402 | 73 | 155 | 0.9 | 2.6 | 0.00 | 0.00 | 0.00 | ||
| 20260507161900 | 72 | 101 | 0.9 | 0.0 | 0.00 | 0.00 | 0.00 | ||
| 20260507161401 | 73 | 14 | 0.0 | 0.0 | 0.00 | 0.00 | 0.00 | ||
| 20260507160859 | 73 | 48 | 0.9 | 1.7 | 0.00 | 0.00 | 0.00 | ||
| 20260507160400 | 73 | 277 | 2.6 | 5.2 | 0.00 | 0.00 | 0.00 | ||
| 20260507155858 | 73 | 207 | 1.7 | 0.0 | 0.00 | 0.00 | 0.00 | ||
| 20260507155359 | 73 | 308 | 0.0 | 0.0 | 0.00 | 0.00 | 0.00 | ||
| 20260507154858 | 74 | 7 | 3.5 | 4.3 | 0.00 | 0.00 | 0.00 | ||
| 20260507154359 | 74 | 278 | 3.5 | 1.7 | 0.00 | 0.00 | 0.00 | ||
| 20260507153857 | 74 | 359 | 1.7 | 4.3 | 0.00 | 0.00 | 0.00 | ||
| 20260507153358 | 75 | 117 | 0.9 | 0.9 | 0.00 | 0.00 | 0.00 | ||
| 20260507152856 | 75 | 295 | 1.7 | 0.9 | 0.00 | 0.00 | 0.00 | ||
| 20260507152357 | 74 | 260 | 2.6 | 1.7 | 0.00 | 0.00 | 0.00 | ||
| 20260507151855 | 74 | 259 | 1.7 | 0.9 | 0.00 | 0.00 | 0.00 | ||
| 20260507151356 | 74 | 329 | 2.6 | 2.6 | 0.00 | 0.00 | 0.00 | ||
| 20260507150356 | 74 | 249 | 3.5 | 2.6 | 0.00 | 0.00 | 0.00 | ||
| 20260507145854 | 74 | 297 | 2.6 | 2.6 | 0.00 | 0.00 | 0.00 | ||
| 20260507145355 | 74 | 328 | 2.6 | 0.9 | 0.00 | 0.00 | 0.00 | ||
| 20260507144853 | 74 | 352 | 2.6 | 1.7 | 0.00 | 0.00 | 0.00 | ||
| 20260507144354 | 73 | 329 | 1.7 | 6.1 | 0.00 | 0.00 | 0.00 | ||
| 20260507143852 | 73 | 277 | 2.6 | 2.6 | 0.00 | 0.00 | 0.00 | ||
| 20260507143353 | 73 | 333 | 0.9 | 1.7 | 0.00 | 0.00 | 0.00 | ||
| 20260507142851 | 73 | 231 | 0.9 | 0.9 | 0.00 | 0.00 | 0.00 | ||
| 20260507142352 | 74 | 356 | 1.7 | 2.6 | 0.00 | 0.00 | 0.00 | ||
| 20260507141851 | 74 | 346 | 1.7 | 0.9 | 0.00 | 0.00 | 0.00 | ||
| 20260507141352 | 73 | 349 | 0.9 | 0.9 | 0.00 | 0.00 | 0.00 | ||
| 20260507140849 | 73 | 305 | 0.9 | 0.9 | 0.00 | 0.00 | 0.00 | ||
| 20260507140351 | 72 | 318 | 0.9 | 1.7 | 0.00 | 0.00 | 0.00 | ||
| 20260507135847 | 73 | 271 | 3.5 | 1.7 | 0.00 | 0.00 | 0.00 | ||
| 20260507135348 | 73 | 315 | 0.0 | 0.0 | 0.00 | 0.00 | 0.00 | ||
| 20260507134845 | 73 | 315 | 0.0 | 0.0 | 0.00 | 0.00 | 0.00 | ||
| 20260507134345 | 72 | 315 | 0.0 | 0.0 | 0.00 | 0.00 | 0.00 | ||
| 20260507133842 | 72 | 315 | 0.0 | 0.0 | 0.00 | 0.00 | 0.00 | ||
| 20260507133342 | 72 | 315 | 0.0 | 0.0 | 0.00 | 0.00 | 0.00 | ||
| 20260507132839 | 71 | 315 | 0.0 | 0.0 | 0.00 | 0.00 | 0.00 | ||
| 20260507132340 | 71 | 315 | 0.0 | 0.0 | 0.00 | 0.00 | 0.00 | ||
| 20260507131836 | 72 | 315 | 0.0 | 0.0 | 0.00 | 0.00 | 0.00 | ||
| 20260507131337 | 72 | 315 | 0.0 | 0.0 | 0.00 | 0.00 | 0.00 | ||
| 20260507130833 | 71 | 315 | 1.7 | 0.0 | 0.00 | 0.00 | 0.00 | ||
| 20260507130334 | 71 | 69 | 0.0 | 0.0 | 0.00 | 0.00 | 0.00 | ||
| 20260507125832 | 71 | 138 | 3.5 | 5.2 | 0.00 | 0.00 | 0.00 | ||
| 20260507124831 | 71 | 232 | 0.0 | 0.0 | 0.00 | 0.00 | 0.00 | ||
| 20260507124332 | 72 | 232 | 0.0 | 0.0 | 0.00 | 0.00 | 0.00 | ||
| 20260507123831 | 71 | 346 | 0.0 | 0.0 | 0.00 | 0.00 | 0.00 | ||
| 20260507123332 | 71 | 346 | 0.0 | 0.0 | 0.00 | 0.00 | 0.00 | ||
| 20260507122830 | 71 | 0 | 0.0 | 0.0 | 0.00 | 0.00 | 0.00 | ||
| 20260507121828 | 70 | 318 | 0.9 | 0.0 | 0.00 | 0.00 | 0.00 | ||
| 20260507121330 | 71 | 276 | 0.0 | 0.0 | 0.00 | 0.00 | 0.00 | ||
| 20260507120827 | 71 | 10 | 0.9 | 1.7 | 0.00 | 0.00 | 0.00 | ||
| 20260507120328 | 70 | 339 | 0.0 | 0.0 | 0.00 | 0.00 | 0.00 | ||
| 20260507115826 | 70 | 226 | 0.0 | 0.0 | 0.00 | 0.00 | 0.00 | ||
| 20260507115327 | 70 | 326 | 2.6 | 0.9 | 0.00 | 0.00 | 0.00 | ||
| 20260507114826 | 70 | 236 | 0.0 | 0.0 | 0.00 | 0.00 | 0.00 | ||
| 20260507114327 | 70 | 257 | 0.0 | 0.0 | 0.00 | 0.00 | 0.00 | ||
| 20260507113825 | 69 | 13 | 0.0 | 0.0 | 0.00 | 0.00 | 0.00 | ||
| 20260507113327 | 70 | 13 | 0.0 | 0.0 | 0.00 | 0.00 | 0.00 | ||
| 20260507112822 | 70 | 13 | 0.0 | 0.0 | 0.00 | 0.00 | 0.00 | ||
| 20260507112323 | 70 | 13 | 0.0 | 0.0 | 0.00 | 0.00 | 0.00 | ||
| 20260507111821 | 70 | 13 | 0.0 | 0.0 | 0.00 | 0.00 | 0.00 | ||
| 20260507111322 | 70 | 13 | 0.0 | 0.0 | 0.00 | 0.00 | 0.00 | ||
| 20260507110821 | 70 | 13 | 0.0 | 0.0 | 0.00 | 0.00 | 0.00 | ||
| 20260507110322 | 70 | 13 | 0.0 | 0.0 | 0.00 | 0.00 | 0.00 | ||
| 20260507105820 | 70 | 13 | 0.0 | 0.0 | 0.00 | 0.00 | 0.00 | ||
| 20260507105321 | 70 | 13 | 0.0 | 0.0 | 0.00 | 0.00 | 0.00 | ||
| 20260507104819 | 70 | 13 | 0.0 | 0.0 | 0.00 | 0.00 | 0.00 | ||
| 20260507104320 | 71 | 13 | 0.0 | 0.0 | 0.00 | 0.00 | 0.00 | ||
| 20260507103818 | 71 | 308 | 1.7 | 0.0 | 0.00 | 0.00 | 0.00 | ||
| 20260507103319 | 71 | 11 | 1.7 | 0.9 | 0.00 | 0.00 | 0.00 | ||
| 20260507102818 | 71 | 308 | 1.7 | 1.7 | 0.00 | 0.00 | 0.00 | ||
| 20260507102319 | 71 | 246 | 0.0 | 2.6 | 0.00 | 0.00 | 0.00 | ||
| 20260507101818 | 71 | 252 | 0.9 | 0.9 | 0.00 | 0.00 | 0.00 | ||
| 20260507101318 | 71 | 281 | 0.9 | 0.9 | 0.00 | 0.00 | 0.00 | ||
| 20260507100816 | 71 | 27 | 0.9 | 0.0 | 0.00 | 0.00 | 0.00 | ||
| 20260507100318 | 71 | 328 | 0.0 | 1.7 | 0.00 | 0.00 | 0.00 | ||
| 20260507095815 | 71 | 214 | 0.0 | 0.0 | 0.00 | 0.00 | 0.00 | ||
| 20260507095316 | 71 | 322 | 1.7 | 2.6 | 0.00 | 0.00 | 0.00 | ||
| 20260507094814 | 71 | 343 | 2.6 | 0.9 | 0.00 | 0.00 | 0.00 | ||
| 20260507093813 | 71 | 224 | 0.0 | 0.0 | 0.00 | 0.00 | 0.00 | ||
| 20260507093315 | 71 | 340 | 3.5 | 1.7 | 0.00 | 0.00 | 0.00 | ||
| 20260507092813 | 71 | 332 | 0.0 | 2.6 | 0.00 | 0.00 | 0.00 | ||
| 20260507092314 | 71 | 294 | 0.9 | 0.9 | 0.00 | 0.00 | 0.00 | ||
| 20260507091812 | 71 | 287 | 0.0 | 0.0 | 0.00 | 0.00 | 0.00 | ||
| 20260507091313 | 71 | 228 | 0.9 | 0.9 | 0.00 | 0.00 | 0.00 | ||
| 20260507090311 | 70 | 4 | 0.9 | 1.7 | 0.00 | 0.00 | 0.00 | ||
| 20260507085809 | 70 | 211 | 0.0 | 0.0 | 0.00 | 0.00 | 0.00 | ||
| 20260507084805 | 70 | 34 | 0.0 | 0.9 | 0.00 | 0.00 | 0.00 | ||
| 20260507084304 | 70 | 321 | 0.9 | 0.0 | 0.00 | 0.00 | 0.00 | ||
| 20260507083801 | 70 | 228 | 0.0 | 0.0 | 0.00 | 0.00 | 0.00 | ||
| 20260507083302 | 69 | 228 | 0.9 | 0.0 | 0.00 | 0.00 | 0.00 |